Regional Weather Roundup
Issued by NWS

Home | Current Version | Previous Version | Text Only | Print | Product List | Glossary Off
Versions: 1 2 3 4 5 6 7 8 9 10 11 12 13 14 15 16 17 18 19 20 21 22 23 24 25 26 27 28 29 30 31 32 33 34 35 36 37 38 39 40 41 42 43 44 45 46 47 48 49 50

000
ASUS43 KMKX 290359
RWRWI

WISCONSIN REGIONAL WEATHER ROUNDUP
NATIONAL WEATHER SERVICE MILWAUKEE/SULLIVAN WI
1000 PM CST WED JAN 28 2015

NOTE: "FAIR" INDICATES FEW OR NO CLOUDS BELOW 12,000 FEET WITH NO
SIGNIFICANT WEATHER AND/OR OBSTRUCTIONS TO VISIBILITY.

WIZ001-002-006>008-014>016-023>028-290500-
NORTHWEST WISCONSIN

CITY           SKY/WX    TMP DP  RH WIND       PRES   REMARKS
SUPERIOR ARPT  CLOUDY    30  26  85 W3        29.85S FOG
ASHLAND        CLOUDY    29  25  85 S8        29.84F WCI  21
HAYWARD        FOG       27  25  92 CALM      29.82F VSB 3/4
SIREN          FOG       29  29  98 CALM      29.84F VSB 1
CUMBERLAND     FOG       27  27 100 CALM      29.81F VSB 1
RICE LAKE      CLOUDY    28  25  86 CALM      29.84S FOG
CHETEK         CLOUDY    28  24  86 CALM      29.82F
LADYSMITH      CLOUDY    27  24  87 CALM      29.83F FOG
EAU CLAIRE     NOT AVBL
MENOMONIE      CLOUDY    30  26  84 E3        29.83S FOG
NEW RICHMOND   FOG       29  29 100 NE3       29.83S VSB 1
OSCEOLA        CLOUDY    30  30 100 N3        29.86S FOG
$$

WIZ003>005-009-010-017-018-290500-
NORTH CENTRAL WISCONSIN

CITY           SKY/WX    TMP DP  RH WIND       PRES   REMARKS
MANITOWISH WTR CLOUDY    26  21  80 S5        29.81F WCI  20
ARBOR VITAE    CLOUDY    29  23  78 S7        29.81S WCI  22
WOODRUFF       CLOUDY    29  23  78 S7        29.81S WCI  22
RHINELANDER    CLOUDY    26  20  77 S7        29.81F WCI  18
EAGLE RIVER    CLOUDY    26  20  76 S3        29.81F
LAND O LAKES   CLOUDY    28  22  78 SW5       29.82F WCI  22
PHILLIPS       CLOUDY    27  21  78 S7        29.80F WCI  19
TOMAHAWK       CLOUDY    26  20  78 CALM      29.82F
MEDFORD        CLOUDY    26  20  77 S6        29.81F WCI  20
MERRILL        CLOUDY    27  22  79 SE5       29.83F WCI  22
$$

WIZ029-030-035-036-043>047-290500-
CENTRAL WISCONSIN

CITY           SKY/WX    TMP DP  RH WIND       PRES   REMARKS
WAUSAU         CLOUDY    27  21  78 SE8       29.81F WCI  19
MOSINEE        CLOUDY    27  23  86 SE3       29.84F
MARSHFIELD     CLOUDY    28  21  75 E5        29.81F WCI  23
STEVENS POINT  CLOUDY    26  20  77 E5        29.84F WCI  21
WAUPACA        CLOUDY    30  22  73 E6        29.86F WCI  24
WAUTOMA        NOT AVBL
WISC RAPIDS    CLOUDY    28  20  71 E5        29.84F WCI  23
CAMP DOUGLAS   NOT AVBL
$$

WIZ011>013-019>022-031-037>040-048>050-290500-
NORTHEAST WISCONSIN

CITY           SKY/WX    TMP DP  RH WIND       PRES   REMARKS
ANTIGO         CLOUDY    25  22  86 S13       29.82F WCI  14
SHAWANO        CLOUDY    31  25  78 SE3       29.88F
OCONTO         CLOUDY    30  25  79 CALM      29.89F
STURGEON BAY   CLOUDY    30  21  69 S16G22    29.90F WCI  19
GREEN BAY      CLOUDY    31  25  78 SE10      29.88F WCI  22
MANITOWOC      NOT AVBL
APPLETON       CLOUDY    30  23  74 SE8       29.86F WCI  23
CLINTONVILLE   CLOUDY    30  23  74 E3        29.87F
OSHKOSH        CLOUDY    31  22  69 SE7       29.85F WCI  24
$$

WIZ032>034-041-042-053>061-290500-
SOUTHWEST WISCONSIN

CITY           SKY/WX    TMP DP  RH WIND       PRES   REMARKS
LA CROSSE      CLOUDY    33  26  75 SE3       29.80F
SPARTA         CLOUDY    32  26  78 CALM      29.82F
VIROQUA        CLOUDY    31  28  89 SE6       29.78S WCI  25
BOSCOBEL       CLOUDY    34  27  75 VRB3      29.79F
PRAIRIE DU CHI PTCLDY    32  27  80 E6        29.77F WCI  26
PLATTEVILLE    MOCLDY    32  30  91 E12       29.76F WCI  23
$$

WIZ056-057-062-063-064-067-068-290500-
SOUTH CENTRAL WISCONSIN

CITY           SKY/WX    TMP DP  RH WIND       PRES   REMARKS
REEDSBURG      CLOUDY    32  27  81 S5        29.80S WCI  27
BARABOO/DELLS  CLOUDY    31  26  80 S12       29.80F WCI  22
LONE ROCK      NOT AVBL
MINERAL POINT  CLOUDY    32  30  93 SE12G17   29.77S WCI  23
MADISON        CLOUDY    32  24  72 S15       29.81F WCI  22
MIDDLETON      CLOUDY    33  26  74 S9G17     29.81F WCI  25
WATERTOWN      CLOUDY    31  23  73 SE6       29.84F WCI  25
MONROE         CLOUDY    32  28  86 SE15      29.79F WCI  22
JANESVILLE     CLOUDY    34  25  69 S13       29.83F WCI  25
$$

WIZ051-052-058>065-066-070>072-290500-
SOUTHEAST WISCONSIN

CITY           SKY/WX    TMP DP  RH WIND       PRES   REMARKS
MILWAUKEE      CLOUDY    32  22  66 S10       29.87F WCI  24
WAUKESHA       CLOUDY    30  23  74 SE9       29.86F WCI  22
MILWAUKEE/TIMM CLOUDY    32  21  64 SE10      29.88F WCI  24
RACINE         CLOUDY    32  24  72 S15G23    29.90F WCI  22
BURLINGTON     CLOUDY    30  20  67 S7        29.87F WCI  23
KENOSHA        CLOUDY    32  21  64 S9        29.88F WCI  24
FOND DU LAC    CLOUDY    30  22  72 S12       29.84F WCI  20
SHEBOYGAN      CLOUDY    32  24  72 S16       29.87F WCI  21
WEST BEND      CLOUDY    32  21  64 S9        29.87F WCI  24
JUNEAU         CLOUDY    29  23  76 SE13      29.84F WCI  19
$$

LSZ147-162-290500-
LAKE SUPERIOR

STATION/POSITION TIME  TEMP    WIND        PRES    WAVE
                       AIR SEA DIR/SP/G            HT/PER
                 (UTC) (F)     (DEG/KT/KT) (MB)    (FT/S)
DEVILS ISLAND    0300   31     240/  9/ 10 1011.4F
PORT WING        0340   30     220/  3/  5 1010.8F
SAXON HARBOR     0300   32     220/  3/  8 1011.2S
$$

LMZ867-665-643>646-290500-
LAKE MICHIGAN

STATION/POSITION TIME  TEMP    WIND        PRES    WAVE
                       AIR SEA DIR/SP/G            HT/PER
                 (UTC) (F)     (DEG/KT/KT) (MB)    (FT/S)
NORTHPORT PIER   0311   31     150/ 10/ 22 1013.9F
SISTER BAY       0243   31     160/ 13/ 19   N/A
KEWAUNEE LAKESHO 0300   33     180/ 21/ 26 1012.6F
SHEBOYGAN LAKESH 0300   34     170/ 26/ 29 1013.5F
PORT WASHINGTON  0300   34     170/ 21/ 29 1013.5
MILWAUKEE LAKESH 0300   33     170/ 17/ 21   N/A
KENOSHA   LAKESH 0300   33     180/ 13/ 19 1013.5R
$$

TC  - TEMPERATURE IN CELSIUS
VSB - VISIBILITY IN STATUTE MILES
WCI - WIND CHILL INDEX
HX  - HEAT INDEX




USA.gov is the U.S. government's official web portal to all federal, state and local government web resources and services.